sat.trackr.live / text

‹ back to catalog

STARLINK-11516 [DTC]

NORAD 62522 · 2025-004M

PAYLOAD ACTIVE UNKNOWN

§ Identity

Operator
Country
US
Launch date
2025-01-08
Launch site
AFETR
Launch vehicle
Mass (kg)
RCS (m²)

Purposes: comms

External: N2YO · Heavens-Above · Gunter

§ Orbital elements

Epoch: 2026-09-21T11:42:04.535136Z

Period
91.67 min
Inclination
43.0006°
Eccentricity
0.0001154
Mean motion
15.70849293 rev/d
Perigee alt
355.7 km
Apogee alt
357.2 km
Semi-major
6,734.6 km
B*
3.9618e-4
RAAN
330.4134°
Arg perigee
257.2214°
Mean anomaly
102.8524°
Rev number
9,800

§ Raw data

STARLINK-11516 [DTC]1 62522U 25004M   26264.48755249  .00050716  00000+0  39618-3 0  99902 62522  43.0006 330.4134 0001154 257.2214 102.8524 15.70849293 98001

JSON: /api/v1/satellites/62522 · /tle

For live sub-satellite position, see the globe view (requires WebGL).

§ Visibility from observer

Set your observer location to see the next 7 days of passes ≥ 10°. The values pass through the URL so the page stays shareable.

No JS? Fill the form by hand. The geolocation button needs JavaScript.